Карточка аэропорта UMGG

Внимание!
Информация на этой странице в стадии наполнения.
Если вы не увидели какой-то информации, или заметили неточность - пожалуйста сообщите нам!
Спасибо!
Команда RU-STAFF
Название аэропортаGomel
Название аэропорта (англ.)Gomel
Превышение471 ft. (143.6 m.)
Координаты52°31.614', 31°1.002'
Высота перехода6000 ft
Эшелон переходаFL80; QNH<977hPa - FL90
Коды ответчика0030−0032; 6230-6277
Зона ОрВДМинск РПИ (UMMV)
Данные METARUMGG 290430Z 16006MPS CAVOK 02/M01 Q1022 NOSIG
Проноз погоды (TAF)UMGG 281655Z 2818/2918 15006MPS 9999 SCT025 TEMPO 2818/2906 3000 BR SCT010 BECMG 2906/2908 17004MPS TEMPO 2908/2915 19007MPS TEMPO 2915/2918 VRB02MPS SCT030CB
NOTAMshow/hide NOTAM
AWOS   TABLE

Информация о ВПП

ВПП Длина ВПП (м.) Покрытие Курс ВПП Частота ILS
102569Цементобетон103109.3
282569Цементобетон283108.7

Диспетчерские позиции

Позывной Наименование органа УВД Частота
UMGG_APPHomiel Approach126.100
UMGG_TWRHomiel Tower118.100



Спутниковое изображение